COSMOS 445

Satellite information

Favourite Embed

Satellite Type and Status

PAYLOADIN ORBIT

Key statistics

Satellite COSMOS 445 at a glance.

Uptime

19626

Days in orbit

Revolutions

≈ 12.6

Per day

Orbit

LEO

Low Earth Orbit

Inclination

74.0

Latest

Satellite identification and parameters

Extended collection of information and parameters for COSMOS 445.

Object identification

Identified? True

Debris? False

Object name: COSMOS 445

International designator: 1971-086B

Object number (NORAD): 5548

Object ID (CCSDS): 5548

Country: COMMONWEALTH OF INDEPENDENT STATES (CIS)

Current information (Y/N): Y

RCS size: MEDIUM

Orbital parameters

Period: 114.447 minutes

Inclination: 74.0287 deg

SMA: 7808.428 km

Apoapsis: 1510.698 km

Periapsis: 1349.888 km

RAAN: 34.6448 deg

Eccentricy: 0.0102972

Argument of periapsis: 47.6954 deg

Mean anomaly: 327.6745 deg

Mean motion: 12.58222286 rev/day

Mean motion (dot): -0.00000004 rev/day2

B* drag term: 0.000071229 1/REarth

Two-line elements (TLE)

Creation date: July 6, 2025, 6:05 p.m.

Reference frame: TEME

Reference center: EARTH

Epoch: July 6, 2025, 2:12 p.m. UTC

TLE line 0: 0 COSMOS 445

TLE line 1: 1 05548U 71086B 25187.59181337 -.00000004 00000-0 71229-4 0 9994

TLE line 2: 2 05548 74.0287 34.6448 0102972 47.6954 327.6745 12.58222286467758

Live tracking on map

Real-time ground track for satellite COSMOS 445.

In-orbit conjunctions

A list of the most updated potential collisions computed for object COSMOS 445.

Target Orbit TCA Probability of collision Miss distance Type
THORAD DELTA 1 DEB SSO 2024-11-05 11:35:31 0.0001910237 897.0 (m) DEBRIS

Associated space launch

Military communications satellites

COSMOS 445 was lifted into orbit during the mission ‘Kosmos-3M | Strela-1M 17-24’, on board a Kosmos-3M space rocket.

The launch took place on Oct. 13, 1971, 1:41 p.m. from 132/2.

For more information about the launch, click the button.

Launch to space Kosmos-3M | Strela-1M 17-24
Kosmos-3M | Strela-1M 17-24

Agency: N/A

Status: Launch Successful

Launch date: Oct. 13, 1971, 1:41 p.m. UTC

Rocket: Kosmos-3M

Launch pad: 132/2

Location: Plesetsk Cosmodrome, Russian Federation

...

Latest news about this satellite

There are no fresh news available about this satellite. Check back as we update our databases every day.


Newsletter sign-up

Weekly statistics, charts and insights to help you stay on top of the space industry.